(268248) = 2005 MU18

Discovered at Palomar on 2005-06-28 by NEAT.

Orbit

Orbit type: Main Belt

Note: WebGL enabled browser required.

epoch2023-09-13.0
epoch JD2460200.5
perihelion date2021-12-15.48880
perihelion JD2459563.98880
argument of perihelion (°)359.08025
ascending node (°)253.68198
inclination (°)2.62948
eccentricity0.1729522
perihelion distance (AU)1.8525565
Tisserand w.r.t. Jupiter3.6
ΔV w.r.t. Earth (km/sec)8.4
semimajor axis (AU)2.2399630
mean anomaly (°)187.13225
mean daily motion (°/day)0.29399680
aphelion distance (AU)2.627
period (years)3.35
P-vector [x]-0.29632148
P-vector [y]-0.87598315
P-vector [z]-0.38058783
Q-vector [x]0.95407286
Q-vector [y]-0.28985962
Q-vector [z]-0.07567278
absolute magnitude17.75
phase slope0.15
uncertainty0
referenceMPEC 2023-Y18
observations used312
oppositions15
arc length (days)9338
first opposition used1998
last opposition used2023
residual rms (arc-secs)0.80
perturbers coarse indicatorM-v
perturbers precise indicator003Ek
first observation date used1998-05-22.0
last observation date used2023-12-15.0
computer nameMPCLINUX
JD of orbit computation2456670.669968
perihelion JD uncertainty (days)1.5245E-04
argument of perihelion uncertainty (°)1.5732E-04
ascending node uncertainty (°)1.5321E-04
inclination uncertainty (°)7.1520E-06
eccentricity uncertainty 5.8063E-08
perihelion distance uncertainty (AU)1.3198E-07
Minimum Orbit Intersection Distances (in AU)
for orbit epoch: 2460200.5, reference: E2023-Y18
Mercury1.38698
Venus1.12669
Earth0.8373
Mars0.32327
Jupiter2.40636
Saturn6.43517
Uranus16.1663
Neptune27.2778

Observations

323 total observations over interval: 1998 05 22.26583 – 2023 12 15.462740
These data are available for download (format description).

Date (UT) J2000 RA J2000 Dec Magn Location Ref
1998 05 22.26583 15 32 59.79 -20 43 44.9 19.2   704 – Lincoln Laboratory ETS, New Mexico MPS 149571
1998 05 22.28531 15 32 58.83 -20 43 39.1 20.1   704 – Lincoln Laboratory ETS, New Mexico MPS 149571
1998 05 22.30477 15 32 57.55 -20 43 32.3 19.5   704 – Lincoln Laboratory ETS, New Mexico MPS 149571
1998 05 22.32438 15 32 56.44 -20 43 23.0 20.1   704 – Lincoln Laboratory ETS, New Mexico MPS 149571
1998 07 01.22777 15 17 03.79 -18 04 10.3 20.4 V 691 – Steward Observatory, Kitt Peak-Spacewatch MPS 149571
1998 07 01.24975 15 17 04.07 -18 04 09.1 20.5 V 691 – Steward Observatory, Kitt Peak-Spacewatch MPS 149571
1998 07 01.27204 15 17 04.42 -18 04 07.5 20.7 V 691 – Steward Observatory, Kitt Peak-Spacewatch MPS 149571
2005 05 19.44916 21 01 59.99 -15 05 10.3 21.1 R G96 – Mt. Lemmon Survey MPS 137990
2005 05 19.45301 21 02 00.24 -15 05 08.8 20.5 R G96 – Mt. Lemmon Survey MPS 137990
2005 05 19.45686 21 02 00.49 -15 05 07.2 20.3 R G96 – Mt. Lemmon Survey MPS 137990
2005 05 19.46078 21 02 00.73 -15 05 05.7 20.3 R G96 – Mt. Lemmon Survey MPS 137990
2005 06 28.39944 21 20 49.09 -11 59 30.6 19.9   644 – Palomar Mountain/NEAT MPS 137493
2005 06 28.41987 21 20 48.73 -11 59 28.5 19.5   644 – Palomar Mountain/NEAT MPS 137493
2005 06 28.43284 21 20 48.52 -11 59 27.1 20.0   644 – Palomar Mountain/NEAT MPS 137493
2005 06 30.39216 21 20 18.38 -11 56 34.2 20.1   644 – Palomar Mountain/NEAT MPS 137493
2005 06 30.40622 21 20 18.11 -11 56 33.5 20.1   644 – Palomar Mountain/NEAT MPS 137493
2005 06 30.42023 21 20 17.82 -11 56 32.6 19.8   644 – Palomar Mountain/NEAT MPS 137493
2005 07 05.44368 21 18 22.48 -11 52 21.1 20.1   644 – Palomar Mountain/NEAT MPS 137493
2005 07 05.45466 21 18 22.17 -11 52 20.6 20.1   644 – Palomar Mountain/NEAT MPS 137493
2005 07 05.46604 21 18 21.83 -11 52 20.3 19.8   644 – Palomar Mountain/NEAT MPS 137493
2005 07 09.41325 21 16 15.25 -11 52 13.6 19.9 V 691 – Steward Observatory, Kitt Peak-Spacewatch MPS 137990
2005 07 09.43070 21 16 14.55 -11 52 13.9 20.0 V 691 – Steward Observatory, Kitt Peak-Spacewatch MPS 137990
2005 07 09.44817 21 16 13.88 -11 52 14.3 19.9 V 691 – Steward Observatory, Kitt Peak-Spacewatch MPS 137990
2005 07 28.22756 21 00 42.07 -12 24 33.7 19.8   644 – Palomar Mountain/NEAT MPS 138656
2005 07 28.22875 21 00 41.99 -12 24 33.6 19.4   644 – Palomar Mountain/NEAT MPS 138656
2005 07 28.26005 21 00 40.06 -12 24 39.2 19.4   644 – Palomar Mountain/NEAT MPS 138656
2005 07 28.26127 21 00 40.02 -12 24 39.2 19.6   644 – Palomar Mountain/NEAT MPS 138656
2005 07 28.29372 21 00 37.99 -12 24 45.3 19.2   644 – Palomar Mountain/NEAT MPS 138656
2005 07 28.29492 21 00 37.91 -12 24 45.3 19.3   644 – Palomar Mountain/NEAT MPS 138657
2006 12 13.26667 05 08 38.40 +22 31 32.9 20.8 V G96 – Mt. Lemmon Survey MPS 192215
2006 12 13.27466 05 08 37.93 +22 31 33.4 19.3 V G96 – Mt. Lemmon Survey MPS 192215
2006 12 13.28231 05 08 37.28 +22 31 30.8 20.3 V G96 – Mt. Lemmon Survey MPS 192215
2006 12 13.29016 05 08 36.70 +22 31 29.4 20.3 V G96 – Mt. Lemmon Survey MPS 192215
2008 05 05.31286 14 27 04.52 -17 37 27.4 19.1 C 704 – Lincoln Laboratory ETS, New Mexico MPS 287975
2008 05 05.32309 14 27 03.94 -17 37 21.8 19.7   704 – Lincoln Laboratory ETS, New Mexico MPS 248963
2008 05 05.33334 14 27 03.32 -17 37 18.9 19.6   704 – Lincoln Laboratory ETS, New Mexico MPS 248963
2008 05 05.34357 14 27 02.70 -17 37 14.8 19.2   704 – Lincoln Laboratory ETS, New Mexico MPS 248963
2009 10 23.33823 02 58 00.51 +19 18 45.6 20.0 V G96 – Mt. Lemmon Survey MPS 300665
2009 10 23.34446 02 58 00.19 +19 18 43.8 21.3 V G96 – Mt. Lemmon Survey MPS 300665
2009 10 23.35074 02 57 59.79 +19 18 42.1 21.3 V G96 – Mt. Lemmon Survey MPS 300665
2009 10 23.35690 02 57 59.43 +19 18 40.1 21.1 V G96 – Mt. Lemmon Survey MPS 300665
2009 10 24.29718 02 57 03.23 +19 14 11.3   691 – Steward Observatory, Kitt Peak-Spacewatch MPS 300665
2009 10 24.31436 02 57 02.13 +19 14 06.6   691 – Steward Observatory, Kitt Peak-Spacewatch MPS 300665
2009 10 24.33155 02 57 01.07 +19 14 01.8   691 – Steward Observatory, Kitt Peak-Spacewatch MPS 300665
2009 11 08.27174 02 41 12.84 +17 52 52.0 20.8 V G96 – Mt. Lemmon Survey MPS 302170
2009 11 08.27844 02 41 12.37 +17 52 49.7 20.6 V G96 – Mt. Lemmon Survey MPS 302170
2009 11 08.28516 02 41 11.97 +17 52 47.0 20.9 V G96 – Mt. Lemmon Survey MPS 302170
2009 11 08.29186 02 41 11.50 +17 52 44.7 20.4 V G96 – Mt. Lemmon Survey MPS 302170
2009 12 19.13297 02 13 24.99 +14 46 37.4 21.5 V G96 – Mt. Lemmon Survey MPS 308633
2009 12 19.13953 02 13 24.92 +14 46 37.0 21.9 V G96 – Mt. Lemmon Survey MPS 308633
2009 12 19.14610 02 13 24.85 +14 46 35.9 22.4 V G96 – Mt. Lemmon Survey MPS 308633
2009 12 19.15249 02 13 24.78 +14 46 35.4 21.9 V G96 – Mt. Lemmon Survey MPS 308633
2011 01 30.40967 10 30 16.273 +04 53 49.99 21.4 w F51 – Pan-STARRS 1, Haleakala MPS 379976
2011 01 30.42442 10 30 15.630 +04 53 52.17 21.3 w F51 – Pan-STARRS 1, Haleakala MPS 379976
2011 01 30.44051 10 30 14.922 +04 53 54.51 21.4 w F51 – Pan-STARRS 1, Haleakala MPS 379976
2011 01 30.45529 10 30 14.276 +04 53 56.66 21.3 w F51 – Pan-STARRS 1, Haleakala MPS 379976
2011 02 10.04387 10 21 29.95 +05 28 56.1 19.9   A77 – Observatoire Chante-Perdrix, Dauban MPS 369497
2011 02 10.06791 10 21 28.55 +05 29 02.1 19.3   A77 – Observatoire Chante-Perdrix, Dauban MPS 369497
2011 02 10.09195 10 21 27.15 +05 29 07.5 19.9   A77 – Observatoire Chante-Perdrix, Dauban MPS 369497
2011 03 06.23832 09 56 44.34 +07 36 12.2 20.5 V G96 – Mt. Lemmon Survey MPS 373420
2011 03 06.24411 09 56 43.94 +07 36 14.6 19.9 V G96 – Mt. Lemmon Survey MPS 373420
2011 03 06.25004 09 56 43.69 +07 36 16.4 20.0 V G96 – Mt. Lemmon Survey MPS 373420
2011 03 06.25589 09 56 43.29 +07 36 18.3 20.3 V G96 – Mt. Lemmon Survey MPS 373420
2012 09 18.33912 00 09 19.62 +05 51 11.4 20.6 V G96 – Mt. Lemmon Survey MPS 433192
2012 09 18.35078 00 09 18.93 +05 51 06.5 20.2 V G96 – Mt. Lemmon Survey MPS 433192
2012 09 18.36234 00 09 18.18 +05 51 01.9 20.5 V G96 – Mt. Lemmon Survey MPS 433192
2012 09 18.37388 00 09 17.53 +05 50 57.5 19.8 V G96 – Mt. Lemmon Survey MPS 433192
2012 10 04.465690 23 53 52.112 +03 58 35.28 20.2 i F51 – Pan-STARRS 1, Haleakala MPS 434868
2012 10 04.478016 23 53 51.419 +03 58 30.08 20.4 i F51 – Pan-STARRS 1, Haleakala MPS 434868
2012 10 11.19657 23 48 21.06 +03 13 16.5 20.7 V G96 – Mt. Lemmon Survey MPS 437667
2012 10 11.20337 23 48 20.70 +03 13 13.7 20.6 V G96 – Mt. Lemmon Survey MPS 437667
2012 10 11.21025 23 48 20.37 +03 13 10.8 20.8 V G96 – Mt. Lemmon Survey MPS 437667
2012 10 11.21704 23 48 20.08 +03 13 08.2 20.6 V G96 – Mt. Lemmon Survey MPS 437667
2014 01 03.16787 07 25 35.88 +19 36 34.1   691 – Steward Observatory, Kitt Peak-Spacewatch MPS 495051
2014 01 03.18561 07 25 34.68 +19 36 35.9   691 – Steward Observatory, Kitt Peak-Spacewatch MPS 495051
2014 01 03.20335 07 25 33.41 +19 36 37.5   691 – Steward Observatory, Kitt Peak-Spacewatch MPS 495051
2014 01 07.16930 07 20 58.43 +19 41 52.4 20.8 V 691 – Steward Observatory, Kitt Peak-Spacewatch MPS 496419
2014 01 07.18454 07 20 57.37 +19 41 53.7 20.8 V 691 – Steward Observatory, Kitt Peak-Spacewatch MPS 496419
2014 01 07.19977 07 20 56.35 +19 41 55.7 20.3 V 691 – Steward Observatory, Kitt Peak-Spacewatch MPS 496419
2014 01 10.32227 07 17 16.674 +19 46 07.67 20.7 i F51 – Pan-STARRS 1, Haleakala MPS 496886
2014 01 10.33602 07 17 15.685 +19 46 08.98 20.7 i F51 – Pan-STARRS 1, Haleakala MPS 496886
2015 06 15.49950 20 25 30.731 -16 40 41.11 20.0 w F51 – Pan-STARRS 1, Haleakala MPS 612398
2015 06 15.51078 20 25 30.564 -16 40 39.66 20.0 w F51 – Pan-STARRS 1, Haleakala MPS 612398
2015 06 22.39049 20 23 20.76 -16 29 08.6 20.4 r G45 – Space Surveillance Telescope, Atom Site MPS 613930
2015 06 22.39499 20 23 20.63 -16 29 08.6 20.4 r G45 – Space Surveillance Telescope, Atom Site MPS 613930
2015 06 22.40092 20 23 20.45 -16 29 08.5 20.1 r G45 – Space Surveillance Telescope, Atom Site MPS 613930
2015 06 22.40725 20 23 20.27 -16 29 08.2 19.9 r G45 – Space Surveillance Telescope, Atom Site MPS 613930
2015 06 22.41538 20 23 19.99 -16 29 07.1 20.4 r G45 – Space Surveillance Telescope, Atom Site MPS 613930
2015 06 23.52518 20 22 49.454 -16 27 49.25 19.5 w F52 – Pan-STARRS 2, Haleakala MPS 613930
